Regional Weather Roundup
Issued by NWS

Home | Current Version | Previous Version | Graphics & Text | Print | Product List | Glossary On
Versions: 1 2 3 4 5 6 7 8 9 10 11 12 13 14 15 16 17 18 19 20 21 22 23 24 25 26 27 28 29 30 31 32 33 34 35 36 37 38 39 40 41 42 43 44 45 46 47 48 49 50
000
ASUS43 KOAX 220810
RWRNE

WEATHER ROUNDUP FOR NEBRASKA
NATIONAL WEATHER SERVICE OMAHA NE
300 AM CDT SAT JUL 22 2017

NOTES: SATELLITE DATA IS BEING USED TO AUGMENT CLOUD COVER ABOVE
       12000 FEET.
       "FAIR" INDICATES FEW OR NO CLOUDS BELOW 12,000 FEET WITH NO
       SIGNIFICANT WEATHER AND/OR OBSTRUCTIONS TO VISIBILITY.


NEZ001>004-019>022-054>056-220900-
NEBRASKA PANHANDLE

CITY           SKY/WX    TMP DP  RH WIND       PRES   REMARKS
SCOTTSBLUFF    CLOUDY    72  52  49 S7        30.09R
ALLIANCE       CLOUDY    69  54  58 SW9       30.08R
CHADRON        PTCLDY    66  52  60 SW5       30.01R
GORDON         FAIR      68  62  79 CALM      30.02S
KIMBALL        CLOUDY    66  57  74 S12       30.13F
SIDNEY         MOCLDY    70  55  59 SW22      30.09F
$$

NEZ057>060-069>072-079>082-220900-
SOUTHWEST NEBRASKA

CITY           SKY/WX    TMP DP  RH WIND       PRES   REMARKS
NORTH PLATTE   CLOUDY    83  54  36 W20G28    29.94S
IMPERIAL       CLOUDY    68  60  75 N8        29.95F
LEXINGTON      CLOUDY    78  67  68 W10G18    29.89R
MCCOOK         PTCLDY    79  58  48 N23       29.88F
OGALLALA       MOCLDY    77  56  48 W14       30.00F
$$

NEZ005>010-023>029-035>040-094-220900-
NORTH CENTRAL NEBRASKA

CITY           SKY/WX    TMP DP  RH WIND       PRES   REMARKS
VALENTINE      CLOUDY    72  54  53 NW6       29.95R
AINSWORTH      CLOUDY    74  62  65 NW10      29.93S
BROKEN BOW     CLOUDY    74  67  78 N7        29.89R
O`NEILL        CLEAR     73  71  93 W7        29.85S
ORD            CLOUDY    73  67  81 NW8       29.84R
THEDFORD       CLOUDY    73  69  86 NW5       29.96S
$$

NEZ041-046>049-061>064-073>077-083>087-220900-
SOUTH CENTRAL NEBRASKA

CITY           SKY/WX    TMP DP  RH WIND       PRES   REMARKS
GRAND ISLAND   PTCLDY    73  68  84 NW7       29.81S
AURORA         CLOUDY    74  70  87 NW5       29.80R
HASTINGS       CLOUDY    77  73  87 CALM      29.81S
HEBRON         CLEAR     79  64  59 W7        29.80R
HOLDREGE       MOCLDY    73  66  78 NE5       29.84R
KEARNEY        PTCLDY    77  71  82 N9        29.83S
YORK           CLOUDY    75  75 100 W3        29.78S
$$

NEZ011>018-030>034-042>045-220900-
NORTHEAST NEBRASKA

CITY           SKY/WX    TMP DP  RH WIND       PRES   REMARKS
NORFOLK        CLOUDY    73  67  81 W8        29.79R
ALBION         MOCLDY    71  68  92 CALM      29.83R
BLAIR          CLOUDY    82  70  68 SW5       29.75R
COLUMBUS       PTCLDY    76  67  73 NW7       29.79R
FREMONT        CLOUDY    79  77  94 CALM      29.75R
TEKAMAH        CLOUDY    79  77  94 N7        29.75R FOG
WAYNE          FOG       77  77  99 NE5       29.78S VSB 3/4
$$

NEZ050>053-065>068-078-088>093-220900-
SOUTHEAST NEBRASKA

CITY           SKY/WX    TMP DP  RH WIND       PRES   REMARKS
LINCOLN        CLEAR     81  65  58 SW10      29.75R
OMAHA EPPLEY   CLOUDY    87  67  51 CALM      29.73R HX  90
BEATRICE       CLEAR     85  67  54 SW15      29.76S
NEBRASKA CITY  CLEAR     83  69  62 SW13      29.74S
PLATTSMOUTH    CLEAR     82  67  60 SW12      29.73S
$$

NEZ044-045-051>053-067-220900-
OMAHA AREA

CITY           SKY/WX    TMP DP  RH WIND       PRES   REMARKS
OMAHA EPPLEY   CLOUDY    87  67  51 CALM      29.73R HX  90
BLAIR          CLOUDY    82  70  68 SW5       29.75R
FREMONT        CLOUDY    79  77  94 CALM      29.75R
MILLARD        CLOUDY    88  69  52 SW6       29.73S HX  92
OFFUTT AFB     CLOUDY    75  70  84 NW5       29.73R
PLATTSMOUTH    CLEAR     82  67  60 SW12      29.73S
WAHOO          FAIR      78  76  95 W5        29.74R
$$




USA.gov is the U.S. government's official web portal to all federal, state and local government web resources and services.